| time (UTC) | temp C | wind direction | speed KPH | gust KPH | rain 1hr cm | rain 24hr cm | rain mn cm | humidity % | barometer mb |
| 20260502224552 | 17 | 180 | 6.4 | 20.9 | 0.00 | 0.00 | 0.00 | 84 | 1016.2 |
| 20260502223055 | 17 | 196 | 9.7 | 22.5 | 0.00 | 0.00 | 0.00 | 84 | 1016.2 |
| 20260502221551 | 18 | 192 | 4.8 | 14.5 | 0.00 | 0.00 | 0.00 | 84 | 1016.3 |
| 20260502220054 | 18 | 181 | 6.4 | 16.1 | 0.00 | 0.00 | 0.00 | 84 | 1016.3 |
| 20260502214552 | 17 | 192 | 6.4 | 17.7 | 0.00 | 0.00 | 0.00 | 85 | 1016.4 |
| 20260502213108 | 17 | 188 | 3.2 | 16.1 | 0.00 | 0.00 | 0.00 | 85 | 1016.6 |
| 20260502211554 | 17 | 182 | 4.8 | 14.5 | 0.00 | 0.00 | 0.00 | 85 | 1016.6 |
| 20260502210052 | 17 | 200 | 4.8 | 12.9 | 0.00 | 0.00 | 0.00 | 85 | 1016.8 |
| 20260502204602 | 17 | 192 | 4.8 | 14.5 | 0.00 | 0.00 | 0.00 | 85 | 1016.5 |
| 20260502203058 | 17 | 217 | 6.4 | 14.5 | 0.00 | 0.00 | 0.00 | 84 | 1016.3 |
| 20260502201550 | 18 | 202 | 8.0 | 16.1 | 0.00 | 0.00 | 0.00 | 84 | 1016.4 |
| 20260502200115 | 18 | 204 | 8.0 | 17.7 | 0.00 | 0.00 | 0.00 | 84 | 1016.2 |
| 20260502194606 | 18 | 204 | 6.4 | 17.7 | 0.00 | 0.00 | 0.00 | 84 | 1016.1 |
| 20260502193057 | 18 | 190 | 9.7 | 16.1 | 0.00 | 0.00 | 0.00 | 84 | 1016.1 |
| 20260502191556 | 18 | 196 | 9.7 | 17.7 | 0.00 | 0.00 | 0.00 | 84 | 1016.2 |
| 20260502190054 | 18 | 201 | 8.0 | 17.7 | 0.00 | 0.00 | 0.00 | 84 | 1016.1 |
| 20260502184559 | 18 | 205 | 9.7 | 22.5 | 0.00 | 0.00 | 0.00 | 84 | 1015.9 |
| 20260502183052 | 18 | 200 | 8.0 | 16.1 | 0.00 | 0.00 | 0.00 | 84 | 1015.8 |
| 20260502181549 | 18 | 190 | 8.0 | 19.3 | 0.00 | 0.00 | 0.00 | 84 | 1015.9 |
| 20260502180114 | 18 | 258 | 9.7 | 20.9 | 0.00 | 0.00 | 0.00 | 84 | 1016.0 |
| 20260502163052 | 19 | 202 | 9.7 | 24.1 | 0.00 | 0.00 | 0.00 | 83 | 1016.7 |
| 20260502161553 | 19 | 223 | 8.0 | 20.9 | 0.00 | 0.00 | 0.00 | 83 | 1016.9 |
| 20260502151606 | 19 | 208 | 8.0 | 16.1 | 0.00 | 0.00 | 0.00 | 83 | 1017.5 |
| 20260502150125 | 19 | 211 | 9.7 | 19.3 | 0.00 | 0.00 | 0.00 | 83 | 1017.6 |
| 20260502130105 | 19 | 242 | 6.4 | 14.5 | 0.00 | 0.00 | 0.00 | 82 | 1018.8 |
| 20260502123051 | 20 | 210 | 8.0 | 16.1 | 0.00 | 0.00 | 0.00 | 83 | 1018.9 |
| 20260502121559 | 20 | 210 | 8.0 | 19.3 | 0.00 | 0.00 | 0.00 | 80 | 1018.7 |
| 20260502120113 | 20 | 214 | 6.4 | 17.7 | 0.00 | 0.00 | 0.00 | 81 | 1019.2 |
| 20260502114612 | 20 | 225 | 6.4 | 16.1 | 0.00 | 0.00 | 0.00 | 83 | 1019.5 |
| 20260502113112 | 20 | 225 | 9.7 | 19.3 | 0.00 | 0.00 | 0.00 | 82 | 1019.4 |
| 20260502111555 | 20 | 198 | 8.0 | 17.7 | 0.00 | 0.00 | 0.00 | 82 | 1019.4 |
| 20260502110103 | 20 | 216 | 9.7 | 19.3 | 0.00 | 0.00 | 0.00 | 82 | 1019.6 |
| 20260502104553 | 20 | 183 | 6.4 | 22.5 | 0.00 | 0.00 | 0.00 | 82 | 1019.6 |
| 20260502103112 | 20 | 223 | 8.0 | 17.7 | 0.00 | 0.00 | 0.00 | 83 | 1019.9 |
| 20260502101606 | 20 | 227 | 6.4 | 16.1 | 0.00 | 0.00 | 0.00 | 82 | 1020.0 |
| 20260502070059 | 19 | 191 | 6.4 | 16.1 | 0.00 | 0.00 | 0.00 | 80 | 1020.1 |
| 20260502064558 | 18 | 218 | 8.0 | 19.3 | 0.00 | 0.00 | 0.00 | 81 | 1020.0 |
| 20260502063104 | 18 | 193 | 9.7 | 19.3 | 0.00 | 0.00 | 0.00 | 81 | 1020.1 |
| 20260502061559 | 18 | 205 | 3.2 | 17.7 | 0.00 | 0.00 | 0.00 | 82 | 1019.9 |
| 20260502060106 | 18 | 202 | 3.2 | 9.7 | 0.00 | 0.00 | 0.00 | 82 | 1020.0 |
| 20260502054615 | 18 | 0 | 3.2 | 11.3 | 0.00 | 0.00 | 0.00 | 82 | 1019.9 |
| 20260502053051 | 18 | 175 | 1.6 | 6.4 | 0.00 | 0.00 | 0.00 | 82 | 1019.8 |
| 20260502051551 | 18 | 145 | 0.0 | 9.7 | 0.00 | 0.00 | 0.00 | 82 | 1019.8 |
| 20260502050054 | 18 | 0 | 1.6 | 8.0 | 0.00 | 0.00 | 0.00 | 82 | 1019.9 |
| 20260502044552 | 18 | 163 | 1.6 | 6.4 | 0.00 | 0.00 | 0.00 | 82 | 1019.8 |
| 20260502043104 | 18 | 194 | 3.2 | 11.3 | 0.00 | 0.00 | 0.00 | 82 | 1019.9 |
| 20260502041556 | 18 | 193 | 4.8 | 11.3 | 0.00 | 0.00 | 0.00 | 82 | 1019.9 |
| 20260502040055 | 18 | 192 | 4.8 | 11.3 | 0.00 | 0.00 | 0.00 | 82 | 1019.9 |
| 20260502034600 | 18 | 202 | 4.8 | 16.1 | 0.00 | 0.00 | 0.00 | 82 | 1020.0 |
| 20260502033054 | 18 | 190 | 4.8 | 14.5 | 0.00 | 0.00 | 0.00 | 82 | 1019.9 |
| 20260502031555 | 18 | 182 | 8.0 | 16.1 | 0.00 | 0.00 | 0.00 | 82 | 1020.0 |
| 20260502030106 | 18 | 194 | 6.4 | 16.1 | 0.00 | 0.00 | 0.00 | 83 | 1020.0 |
| 20260502024556 | 18 | 197 | 6.4 | 14.5 | 0.00 | 0.00 | 0.00 | 83 | 1020.0 |
| 20260502023100 | 18 | 218 | 4.8 | 12.9 | 0.00 | 0.00 | 0.00 | 82 | 1020.1 |
| 20260502021555 | 18 | 197 | 8.0 | 16.1 | 0.00 | 0.00 | 0.00 | 82 | 1020.0 |
| 20260502020054 | 18 | 209 | 6.4 | 17.7 | 0.00 | 0.00 | 0.00 | 82 | 1020.3 |
| 20260502014551 | 18 | 211 | 8.0 | 17.7 | 0.00 | 0.00 | 0.00 | 82 | 1020.2 |
| 20260502013056 | 18 | 185 | 8.0 | 16.1 | 0.00 | 0.00 | 0.00 | 82 | 1020.4 |
| 20260502011549 | 18 | 195 | 8.0 | 20.9 | 0.00 | 0.00 | 0.00 | 82 | 1020.6 |
| 20260502010057 | 18 | 205 | 8.0 | 22.5 | 0.00 | 0.00 | 0.00 | 81 | 1020.6 |
| 20260502004552 | 18 | 211 | 9.7 | 20.9 | 0.00 | 0.00 | 0.00 | 81 | 1020.8 |
| 20260502003056 | 18 | 202 | 9.7 | 19.3 | 0.00 | 0.00 | 0.00 | 81 | 1020.9 |
| 20260502001549 | 18 | 200 | 6.4 | 14.5 | 0.00 | 0.00 | 0.00 | 82 | 1021.1 |
| 20260502000050 | 18 | 205 | 6.4 | 16.1 | 0.00 | 0.00 | 0.00 | 82 | 1021.4 |
| 20260501234553 | 18 | 242 | 6.4 | 17.7 | 0.00 | 0.00 | 0.00 | 82 | 1021.6 |
| 20260501233055 | 18 | 225 | 9.7 | 20.9 | 0.00 | 0.00 | 0.00 | 82 | 1021.6 |
| 20260501231555 | 18 | 242 | 9.7 | 20.9 | 0.00 | 0.00 | 0.00 | 83 | 1021.6 |
| 20260501230059 | 18 | 217 | 9.7 | 19.3 | 0.00 | 0.00 | 0.00 | 83 | 1021.5 |